Location: Ravensburg
(48.5621°N, 13.4088°E)
Time: 18:05:31
(UTC+02:00)

ISS - Pass Details

Date: 30 March 2017
Orbit: 401 x 409 km, 51.6° (Epoch: 29 April)

Event Time Altitude Azimuth Distance (km) Brightness Sun altitude
Rises 20:37:40 0° 233° (SW) 2,311 0.5 -11.0°
Reaches altitude 10° 20:39:46 10° 228° (SW) 1,456 -0.6 -11.4°
Maximum altitude 20:42:57 52° 151° (SSE) 510 -3.6 -11.9°
Enters shadow 20:45:14 17° 78° (ENE) 1,101 -2.1 -12.2°
